Startpagina
METAR-TAF:

METAR-TAF

Vliegvelden :

Productieplatform

L9-ff-1, Nederland

breedte: 53-36-52N, lengte: 4-57-37E, hoogte: 30 m

Actueel weer

Dit bericht is 36 minuten geleden gemaakt, om 13:55 UTC
Wind 10 kt uit het oostzuidoosten
Temperatuur 6°C
Vochtigheid 87%
Druk 1029 hPa
Zicht: 5000 m
Verspreide wolken op 300 ft
Gebroken wolken op 400 ft
nevel

METAR: EHMG 161355Z AUTO 12010KT 5000 BR SCT003 BKN004 06/04 Q1029 W///H///

Tijdstip: 15:31 (14:31 UTC)


TAF: ontbreekt

Waarnemingen en weersverwachtingen van meer dan 4000 vliegvelden (METAR en TAF).

De beschikbare stations zijn de gele en rode punten op de kaart.

Ga met uw muis naar het station om de naam te zien.

Klik dan om waarnemingen en weersverwachtingen te zien.

kaart wijzigen: klik op de groene knoppen met een zwart kruis om in te zoomen, op de groene knop met een streepje om uit te zoomen of op de groene pijlen voor aangrenzende kaarten.


METAR-TAF: